Flag for India Weather past 2 weeks in Balurghat, West Bengal, India

Now
86 °F

Broken clouds.


Feels Like: 99 °F
Forecast: 75 / 86 °F
Wind: 2 mph from Northeast

Location: Varanasi / Babatpur

Current Time: Aug 1, 2015 at 5:44:27 PM

Latest Report: Aug 1, 2015 at 4:00 PM


Visibility: 4 mi

Pressure: 29.62 "Hg

Humidity: 79%

Dew point: 79 °F

Location of BalurghatLocation

Historic Weather in Balurghat — Graph

°F

Balurghat temperature yesterday

Maximum temperature yesterday: 86 °F (at 12:00 AM)
Minimum temperature yesterday: 81 °F (at 10:00 AM)
Average temperature yesterday: 83 °F

Past Weeks' High & Low Weather Summary

 TemperatureHumidityPressure
High99 °F (Jul 27, 4:00 PM)100% (Jul 23, 11:00 PM)29.71 "Hg (Jul 23, 11:00 PM)
Low77 °F (Jul 26, 6:00 AM)45% (Jul 23, 4:00 AM)29.39 "Hg (Jul 19, 4:00 PM)
Average87 °F76%29.55 "Hg
* Reported Jul 17 7:00 PM — Aug 1 4:00 PM, Balurghat, Weather by CustomWeather, © 2015

Note: Actual official high and low records may vary slightly from our data, if they occured in-between our weather recording intervals... More about our weather records

Advertising

Balurghat weather history for previous 24 hours

 ConditionsComfort  
Time TempWeatherWind HumidityBarometerVisibility
4:00 PM
Sat, Aug 1
86 °FBroken clouds.2 mph79%29.62 "Hg4 mi
3:00 PM86 °FBroken clouds.3 mph79%29.65 "Hg4 mi
2:00 PM90 °FBroken clouds.8 mph67%29.68 "Hg4 mi
1:00 PM88 °FBroken clouds.No wind70%29.71 "Hg4 mi
12:00 PM84 °FBroken clouds.No wind79%29.71 "Hg3 mi
11:00 AM88 °FBroken clouds.No wind70%29.71 "Hg3 mi
10:00 AM84 °FScattered clouds.No wind74%29.71 "HgN/A
9:00 AM79 °FLight rain. Broken clouds.6 mph89%29.68 "Hg2 mi
8:00 AM77 °FLight rain. More clouds than sun.5 mph94%29.65 "Hg1 mi
7:00 AM77 °FMore clouds than sun.No wind94%29.65 "Hg2 mi
6:00 AM77 °FLight rain. More clouds than sun.No wind94%29.65 "Hg1 mi
5:00 AM77 °FLight rain. Mostly cloudy.3 mph100%29.62 "Hg1 mi
4:00 AM79 °FPartly cloudy.1 mph89%29.62 "Hg2 mi
12:00 AM79 °FLight rain. Mostly cloudy.6 mph94%29.65 "Hg2 mi
10:00 PM
Fri, Jul 31
81 °FLight rain. Partly cloudy.5 mph89%29.65 "Hg2 mi
9:00 PM81 °FPartly cloudy.2 mph89%29.62 "Hg2 mi
8:00 PM81 °FPartly cloudy.2 mph89%29.62 "Hg2 mi
7:00 PM82 °FBroken clouds.No wind84%29.59 "Hg2 mi
6:00 PM84 °FBroken clouds.7 mph84%29.56 "Hg2 mi
Weather by CustomWeather, © 2015

See weather overviewHow to use our weather pages